Location: Buffign�court
(47.8126°N, 6.0176°E)
Time: 19:18:23
(UTC+00:00)

Cosmos 1726 - Pass Details

Date: 16 June 2021
Orbit: 480 x 495 km, 82.5° (Epoch: 01 August)

Event Time Altitude Azimuth Distance (km) Brightness Sun altitude
Rises 20:35:57 0° 344° (NNW) 2,554 7.1 -8.1°
Reaches altitude 10° 20:38:07 10° 338° (NNW) 1,669 6.2 -8.3°
Maximum altitude 20:41:35 43° 266° (W) 687 3.1 -8.7°
Drops below altitude 10° 20:45:02 10° 194° (SSW) 1,657 4.4 -9.0°
Enters shadow 20:46:27 - 189° (S) 2,232 5.0 -9.2°
